Location: Campillo
(40.8621°N, 4.2488°W)
Time: 11:44:22
(UTC+00:00)

Cosmos 962 Rocket - Pass Details

Date: 11 May 2021
Orbit: 950 x 1000 km, 82.9° (Epoch: 13 June)

Event Time Altitude Azimuth Distance (km) Brightness Sun altitude
Rises 22:58:44 0° 350° (N) 3,633 8.7 -28.5°
Reaches altitude 10° 23:01:14 10° 349° (N) 2,683 7.7 -28.7°
Maximum altitude 23:07:20 73° 266° (W) 994 4.4 -29.0°
Enters shadow 23:07:34 72° 245° (WSW) 999 4.4 -29.1°
